Flag for Germany Weather past 2 weeks in Peine, Lower Saxony, Germany

Now
39 °F

Light rain. Overcast.


Feels Like: 29 °F
Forecast: 38 / 48 °F
Wind: 22 mph from Northwest

Location: Braunschweig

Current Time: Mar 30, 2015 at 1:11:56 PM

Latest Report: Mar 30, 2015 at 12:20 PM


Visibility: 4 mi

Pressure: 29.42 "Hg

Humidity: 100%

Dew point: 39 °F

Location of PeineLocation

Historic Weather in Peine — Graph

°F

Peine temperature yesterday

Maximum temperature yesterday: 50 °F (at 9:50 AM)
Minimum temperature yesterday: 48 °F (at 3:20 PM)
Average temperature yesterday: 49 °F

Past Weeks' High & Low Weather Summary

 TemperatureHumidityPressure
High61 °F (Mar 18, 3:20 PM)100% (Mar 15, 10:20 AM)30.42 "Hg (Mar 15, 10:20 AM)
Low27 °F (Mar 23, 6:50 AM)38% (Mar 19, 5:20 PM)29.12 "Hg (Mar 29, 8:50 PM)
Average46 °F76%30.04 "Hg
* Reported Mar 15 10:20 AM — Mar 30 11:50 AM, Peine, Weather by CustomWeather, © 2015

Note: Actual official high and low records may vary slightly from our data, if they occured in-between our weather recording intervals... More about our weather records

Advertising

Peine weather history for previous 24 hours

 ConditionsComfort  
Time TempWeatherWind HumidityBarometerVisibility
11:50 AM
Mon, Mar 30
41 °FLight rain. Mostly cloudy.24 mph93%29.39 "HgN/A
11:20 AM43 °FLight rain. Mostly cloudy.25 mph76%29.36 "HgN/A
10:50 AM45 °FPartly sunny.24 mph71%29.36 "HgN/A
10:20 AM43 °FScattered clouds.23 mph76%29.33 "HgN/A
9:50 AM43 °FScattered clouds.24 mph76%29.33 "HgN/A
9:20 AM43 °FScattered clouds.25 mph76%29.33 "HgN/A
8:50 AM41 °FPassing clouds.23 mph87%29.30 "HgN/A
8:20 AM41 °FScattered clouds.18 mph87%29.30 "HgN/A
7:50 AM41 °FPassing clouds.21 mph87%29.30 "HgN/A
7:20 AM41 °FPassing clouds.23 mph87%29.30 "HgN/A
6:55 AM41 °FDrizzle. Mostly cloudy.31 mph93%29.27 "HgN/A
6:20 AM41 °FDrizzle. Mostly cloudy.14 mph100%29.24 "HgN/A
5:50 AM41 °FMostly cloudy.13 mph100%29.24 "HgN/A
8:50 PM
Sun, Mar 29
50 °FRain. Overcast.20 mph100%29.12 "Hg5 mi
7:50 PM50 °FLight rain. Cloudy.16 mph100%29.18 "HgN/A
7:20 PM50 °FLight rain. Cloudy.15 mph100%29.21 "Hg6 mi
4:50 PM48 °FRain. Mostly cloudy.15 mph100%29.36 "Hg6 mi
4:20 PM48 °FLight rain. Mostly cloudy.13 mph100%29.39 "HgN/A
3:50 PM48 °FLight rain. More clouds than sun.13 mph100%29.42 "HgN/A
3:20 PM48 °FLight rain. Cloudy.12 mph100%29.42 "HgN/A
1:50 PM50 °FLight rain. Mostly cloudy.17 mph100%29.47 "HgN/A
Weather by CustomWeather, © 2015

See weather overviewHow to use our weather pages